This demonstration page uses our WeatherBlox Daily Observations layout. Learn more.

Left ArrowRight Arrow

39.08367, -84.50855

Hourly Observations for April 2, 2020

Temp ( °F °C ) Dew Point ( °F °C ) Humidity (%) Winds ( mph kmh ) Pressure ( in mb ) Visibility ( mi km ) Precip ( " mm )
12:53 am 00:53 Cloudy 46 7.8 40 4.4 79 79 Calm 30.12 1020 10 16 0.00 0.00
1:53 am 01:53 Mostly Cloudy 43 6.1 40 4.4 89 89 Calm 30.12 1020 10 16 0.00 0.00
2:53 am 02:53 Clear 41 5 38 3.3 89 89 Calm 30.12 1020 10 16 0.00 0.00
3:53 am 03:53 Clear 37 2.8 36 2.2 96 96 Calm 30.12 1020 10 16 0.00 0.00
4:53 am 04:53 Clear with Mist and Fog 37 2.8 37 2.8 100 100 Calm 30.13 1020 6 10 0.00 0.00
5:29 am 05:29 Clear with Mist and Fog 36 2.2 36 2.2 100 100 Calm 30.15 1021 2 3 0.00 0.00
5:41 am 05:41 Clear with Mist and Fog 37 2.8 35 1.7 93 93 Calm 30.15 1021 3 5 0.00 0.00
5:49 am 05:49 Clear with Mist and Fog 36 2 36 2 100 100 Calm 30.15 1021 1 2 0.00 0.00
5:51 am 05:51 Mostly Cloudy with Fog 36 2 36 2 100 100 Calm 30.16 1021 1 1 0.00 0.00
5:53 am 05:53 Mostly Cloudy with Fog 35 1.7 34 1.1 96 96 Calm 30.14 1021 1 1 0.00 0.00
6:01 am 06:01 Mostly Clear with Mist and Fog 35 1.7 35 1.7 100 100 Calm 30.16 1021 2 3 0.00 0.00
6:13 am 06:13 Mostly Cloudy with Mist and Fog 35 1.7 34 1.1 96 96 Calm 30.16 1021 1 2 0.00 0.00
6:20 am 06:20 Mostly Clear with Mist and Fog 35 1.7 34 1.1 96 96 Calm 30.17 1022 2 3 0.00 0.00
6:25 am 06:25 Clear with Mist and Fog 35 1.7 34 1.1 96 96 Calm 30.17 1022 5 8 0.00 0.00
6:33 am 06:33 Clear with Mist and Fog 34 1.1 34 1.1 100 100 Calm 30.18 1022 2 2 0.00 0.00
6:42 am 06:42 Clear with Fog 35 1.7 34 1.1 96 96 Calm 30.17 1022 1 1 0.00 0.00
6:49 am 06:49 Partly Cloudy with Patchy Fog 34 1 34 1 100 100 Calm 30.18 1022 10 16 0.00 0.00
6:53 am 06:53 Partly Cloudy with Patchy Fog 35 1.7 34 1.1 96 96 Calm 30.16 1021 10 16 0.00 0.00
7:53 am 07:53 Partly Cloudy with Patchy Fog 34 1.1 34 1.1 100 100 Calm 30.19 1022 5 8 0.00 0.00
8:53 am 08:53 Partly Cloudy with Patchy Fog 40 4.4 40 4.4 100 100 Calm 30.20 1023 5 8 0.00 0.00
9:53 am 09:53 Mostly Sunny 49 9.4 42 5.6 77 77 Calm 30.21 1023 10 16 0.00 0.00
10:53 am 10:53 Partly Cloudy 52 11.1 39 3.9 61 61 N 5 7 30.20 1023 10 16 0.00 0.00
11:53 am 11:53 Partly Cloudy 56 13.3 39 3.9 53 53 NNW 8 13 30.20 1023 10 16 0.00 0.00
12:53 pm 12:53 Partly Cloudy 59 15 38 3.3 46 46 VRB 6 9 30.18 1022 10 16 0.00 0.00
1:53 pm 13:53 Mostly Sunny 58 14.4 35 1.7 42 42 VRB 7 11 30.16 1021 10 16 0.00 0.00
2:53 pm 14:53 Sunny 60 15.6 35 1.7 39 39 undefined N/A 30.13 1020 10 16 0.00 0.00
3:53 pm 15:53 Sunny 61 16.1 36 2.2 39 39 NNE 3 6 30.11 1020 10 16 0.00 0.00
4:53 pm 16:53 Sunny 61 16.1 35 1.7 38 38 Calm 30.09 1019 10 16 0.00 0.00
6:53 pm 18:53 Sunny 59 15 35 1.7 41 41 N 7 11 30.09 1019 10 16 0.00 0.00
9:53 pm 21:53 Clear 48 8.9 41 5 77 77 Calm 30.11 1020 10 16 0.00 0.00
10:53 pm 22:53 Clear 44 6.7 39 3.9 83 83 Calm 30.10 1019 10 16 0.00 0.00
11:53 pm 23:53 Clear 44 6.7 39 3.9 83 83 Calm 30.11 1020 10 16 0.00 0.00

Powered by AerisWeather